GW2477 Weather Reports


time (UTC)temp
C
wind
direction
speed
KPH
gust
KPH
rain 1hr
cm
rain 24hr
cm
rain mn
cm
humidity
%
barometer
mb
20260506011554 11 128 3.2 6.4 0.00 0.00 0.00 80 1018.1
20260506010024 12 278 0.0 4.8 0.00 0.00 0.00 74 1018.1
20260506004545 12 22 0.0 9.7 0.00 0.00 0.00 73 1018.0
20260506003024 12 168 1.6 8.0 0.00 0.00 0.00 74 1018.1
20260506001555 12 130 1.6 8.0 0.00 0.00 0.00 75 1018.3
20260506000040 12 138 1.6 9.7 0.00 0.00 0.00 73 1018.3
20260505234503 12 127 4.8 14.5 0.00 0.00 0.00 69 1018.4
20260505233040 11 173 0.0 6.4 0.00 0.00 0.00 70 1018.6
20260505231557 11 325 0.0 0.0 0.00 0.00 0.00 70 1018.8
20260505230027 12 330 0.0 3.2 0.00 0.00 0.00 68 1018.9
20260505224553 12 51 0.0 4.8 0.00 0.00 0.00 65 1018.9
20260505223025 12 120 0.0 6.4 0.00 0.00 0.00 70 1019.0
20260505221539 11 155 1.6 3.2 0.00 0.00 0.00 75 1019.2
20260505220015 11 220 0.0 0.0 0.00 0.00 0.00 70 1019.2
20260505214547 11 220 0.0 1.6 0.00 0.00 0.00 68 1019.2
20260505213026 11 259 0.0 0.0 0.00 0.00 0.00 71 1019.2
20260505211552 11 259 0.0 0.0 0.00 0.00 0.00 73 1019.1
20260505210025 11 259 0.0 0.0 0.00 0.00 0.00 72 1019.1
20260505204541 11 259 0.0 0.0 0.00 0.00 0.00 72 1019.4
20260505203041 10 259 0.0 0.0 0.00 0.00 0.00 70 1019.4
20260505201553 10 259 0.0 0.0 0.00 0.00 0.00 69 1019.6
20260505200028 11 259 0.0 0.0 0.00 0.00 0.00 67 1019.7
20260505194559 11 259 0.0 0.0 0.00 0.00 0.00 67 1019.5
20260505194501 11 259 0.0 0.0 0.00 0.00 0.00 67 1019.5
20260505193037 11 259 0.0 0.0 0.00 0.00 0.00 70 1019.5
20260505191505 11 259 0.0 0.0 0.00 0.00 0.00 69 1019.4
20260505190012 11 259 0.0 0.0 0.00 0.00 0.00 70 1019.2
20260505184544 11 259 0.0 0.0 0.00 0.00 0.00 71 1019.2
20260505183014 11 259 0.0 0.0 0.00 0.00 0.00 75 1019.0
20260505181537 12 260 0.0 0.0 0.00 0.00 0.00 74 1019.0
20260505180014 12 260 0.0 0.0 0.00 0.00 0.00 74 1018.9
20260505174539 12 266 0.0 0.0 0.00 0.00 0.00 77 1019.0
20260505173020 13 304 0.0 0.0 0.00 0.00 0.00 79 1019.1
20260505171546 13 304 0.0 0.0 0.00 0.00 0.00 78 1019.0
20260505170016 13 304 0.0 0.0 0.00 0.00 0.00 78 1018.9
20260505164540 13 304 0.0 3.2 0.00 0.00 0.00 77 1018.6
20260505163026 14 309 0.0 0.0 0.00 0.00 0.00 75 1018.8
20260505161546 15 301 0.0 3.2 0.00 0.00 0.00 72 1018.8
20260505153024 17 355 1.6 8.0 0.00 0.00 0.00 67 1019.2
20260505151551 17 9 1.6 6.4 0.00 0.00 0.00 63 1019.2
20260505124554 20 333 1.6 11.3 0.00 0.00 0.00 60 1019.6
20260505123034 18 325 1.6 11.3 0.00 0.00 0.00 63 1019.7
20260505121602 20 319 1.6 8.0 0.00 0.00 0.00 58 1020.0
20260505121502 20 270 1.6 8.0 0.00 0.00 0.00 61 1020.0
20260505120042 19 270 3.2 9.7 0.00 0.00 0.00 60 1020.1
20260505114511 21 343 4.8 12.9 0.00 0.00 0.00 56 1020.0
20260505113103 21 331 3.2 12.9 0.00 0.00 0.00 56 1020.1
20260505111506 20 32 6.4 16.1 0.00 0.00 0.00 62 1019.9
20260505101524 18 350 8.0 16.1 0.00 0.00 0.00 62 1020.4
20260505100055 18 285 1.6 12.9 0.00 0.00 0.00 58 1020.4
20260505094518 18 342 0.0 12.9 0.00 0.00 0.00 55 1020.6
20260505041509 8 131 0.0 4.8 0.00 0.00 0.00 74 1019.8
20260505040019 8 130 0.0 4.8 0.00 0.00 0.00 77 1019.7
20260505034530 8 140 0.0 3.2 0.00 0.00 0.00 82 1019.6
20260505033011 8 127 0.0 4.8 0.00 0.00 0.00 81 1019.7
20260505031525 8 131 0.0 3.2 0.00 0.00 0.00 81 1019.7
20260505030056 8 115 0.0 3.2 0.00 0.00 0.00 76 1019.7
20260505024511 7 157 0.0 3.2 0.00 0.00 0.00 79 1019.8
20260505023040 7 131 3.2 9.7 0.00 0.00 0.00 83 1019.9
20260505021602 7 112 0.0 1.6 0.00 0.00 0.00 83 1020.0
20260505021501 7 112 0.0 1.6 0.00 0.00 0.00 83 1019.9
20260505020027 7 109 0.0 3.2 0.00 0.00 0.00 79 1019.9
20260505014525 7 143 0.0 0.0 0.00 0.00 0.00 73 1019.9
20260505013051 7 161 0.0 1.6 0.00 0.00 0.00 69 1020.1